Weather in Ropice

Czech Republic     49°42′22″N   18°36′56″E
temp.,
°C
wind,
m/s
gust,
m/s
humid.,
%
clouds,
%
prec.,
mm/h
press.,
hPa
HPBL,
m
19 april, mon
mon1923:00+4ene1294100 0.0 101966
02:00+4ene1193100 0.0 101912
05:00+3e1193100 0.0 101810
08:00+6ne2486100 0.0 1018245
11:00+6nne2395100 0.6 1018209
14:00+6n2496100 1.1 1018459
17:00+7n1297100 0.1 1016268
20:00+7wnw0198100 0.6 101645
20 april, tue
tue2023:00+6n129999 1.3 101665
02:00+5nw119972 1.3 101511
05:00+5nw119684 0.0 101525
08:00+6nne129184 0.0 1016340
11:00+9ne357280 0.1 1015871
14:00+12nne345326 0.2 10141529
17:00+12nne235292 0.1 10131499
20:00+8e117278 0.1 101411
21 april, wed
wed2123:00+6s227589 0.0 101511
02:00+5ssw227947 0.0 101517
05:00+4ssw22785 0.0 101425
08:00+8ssw246893 0.0 1014187
11:00+12wsw456076 0.1 1014991
14:00+14w575874 1.2 10121580
17:00+13w476711 1.6 10121069
20:00+9sw34815 2.6 101356
22 april, thu
thu2223:00+8ssw228474 0.2 101539
02:00+6w138678 0.3 101581
05:00+5ssw119187 0.0 101627
08:00+7n1284100 0.0 1017486
11:00+5nnw2292100 1.3 1017308
14:00+7w4683100 1.6 1017881
17:00+7ssw3575100 0.4 1017583
20:00+5nw237798 0.4 101896
23 april, fri
fri2323:00+3sw117782 0.0 102013
02:00+1sw22825 0.0 102025
05:00+1ssw238317 0.0 102156
08:00+4w24725 0.0 1022331
11:00+7nw456199 0.3 10231304
14:00+8wnw3558100 1.0 10231337
17:00+9wnw354882 0.4 10231574
20:00+6w1264100 0.4 102419